Wind_Speed
16 15 15 18 20 21 22 21 20 20 20 22 21 21 22 21 21 19 19 20 21 19 19 19 19 18 18 17 16 17 18 20 20 22 23 24 26 28 30 32 35 38 36 39 42 43 45
16 15 16 17 20 20 20 20 22 22 21 21 20 19 19 18 19 19 20 20 20 19 18 18 20 19 19 19 20 19 21 21 23 24 27 29 31 32 33 35 39 42 43 44 46 48 49
17 16 16 17 18 20 21 23 20 23 22 20 20 19 18 19 21 22 20 19 18 19 19 19 20 20 20 20 20 18 23 24 26 29 29 30 33 34 36 38 40 44 48 50 52 53 54
18 19 19 18 17 19 22 25 22 20 23 21 20 21 20 20 20 22 22 20 20 20 19 18 20 21 21 20 22 23 24 25 26 29 29 30 33 36 39 40 43 46 49 51 54 56 59
20 18 18 18 20 19 21 23 21 23 21 21 19 20 21 20 19 20 22 21 20 20 20 20 20 22 23 23 23 28 27 28 29 30 31 33 34 36 39 41 44 46 50 53 57 59 62
20 21 22 19 19 20 20 24 22 22 22 21 18 19 22 20 21 20 21 21 21 21 22 22 23 24 23 27 27 24 26 28 31 32 34 35 36 38 40 43 48 50 52 56 60 63 66
23 23 24 21 20 22 21 23 23 22 23 23 19 18 20 20 20 20 22 21 23 22 23 25 24 25 24 25 23 27 28 31 33 34 35 36 40 42 44 45 48 51 55 59 62 66 71
25 26 25 26 25 24 24 22 22 23 27 25 22 19 21 21 21 21 21 24 24 25 24 23 24 27 22 23 26 26 29 31 31 32 34 37 41 44 46 49 51 54 59 63 66 70 74
28 26 25 26 24 26 23 21 23 23 23 24 25 25 21 23 24 24 22 25 25 27 26 25 27 20 25 25 26 29 29 31 33 34 36 40 44 47 50 52 55 59 64 67 69 72 73
28 28 28 26 25 25 22 24 24 26 24 24 25 28 26 25 26 25 23 26 28 29 29 29 23 27 28 29 31 30 32 34 37 39 43 47 48 52 55 57 59 64 67 69 72 73 71
30 30 30 29 27 27 26 25 25 24 23 24 24 25 23 22 24 23 25 28 30 30 33 26 26 27 30 30 32 35 36 39 41 45 47 50 52 57 58 59 63 65 68 70 70 68 68
32 31 31 32 30 29 27 27 25 26 25 23 22 22 21 24 25 25 28 30 30 29 31 29 28 31 31 33 35 37 39 40 43 47 49 52 55 59 60 61 63 66 67 67 64 61 57
31 32 34 35 33 31 32 29 27 28 27 25 21 20 23 24 26 27 27 29 30 32 31 32 32 34 34 36 39 40 41 42 45 47 49 51 54 58 59 58 56 59 61 60 59 55 48
39 38 41 38 36 31 29 31 30 30 28 25 22 23 27 26 28 28 27 29 30 31 33 34 35 36 37 39 41 43 45 47 50 52 53 53 54 57 59 59 61 59 57 53 53 49 47
28 32 34 38 32 32 30 30 29 32 31 26 24 24 25 26 27 27 28 30 30 32 35 36 37 39 40 42 44 46 48 50 52 52 53 55 54 58 58 58 56 55 51 48 46 44 45
28 28 25 31 26 28 33 32 31 30 31 27 26 26 25 25 27 27 27 28 29 33 35 36 38 41 43 44 46 49 51 52 53 54 56 57 55 55 52 52 51 49 47 44 41 42 45
29 24 31 29 28 28 31 30 30 32 30 27 27 25 24 24 26 28 27 28 30 35 37 40 42 43 44 45 48 50 51 53 54 55 56 57 55 52 51 48 45 43 41 40 39 39 43
43 36 40 34 31 32 32 32 31 32 31 28 27 26 26 26 27 28 28 31 33 36 40 43 44 45 45 46 49 51 51 53 54 53 54 53 52 49 48 46 44 40 38 37 38 38 39
37 35 40 41 30 30 30 29 30 34 31 28 28 27 28 27 29 30 30 34 36 39 42 45 46 47 48 48 50 51 52 52 53 52 52 52 50 48 46 45 43 39 38 37 37 37 37
38 36 37 35 42 28 27 29 34 34 30 29 30 31 29 29 30 31 34 37 39 42 46 47 48 49 49 50 51 51 51 52 52 50 50 49 45 45 43 41 41 39 38 37 38 39 40
38 35 36 37 45 32 33 31 34 34 32 30 32 31 31 30 32 34 36 39 42 45 48 49 50 49 49 50 50 50 51 51 50 49 47 45 43 42 41 40 39 37 37 37 37 38 39
37 37 36 36 45 32 43 33 33 33 33 32 34 34 33 31 34 37 38 41 44 47 50 51 50 51 51 49 49 50 50 50 48 46 44 43 41 40 37 37 36 35 36 36 36 36 36
41 41 40 37 37 39 39 35 35 34 32 32 33 34 34 33 36 38 41 44 46 50 52 51 50 51 51 49 49 49 47 48 46 44 43 41 40 38 36 35 34 33 34 34 36 37 37
40 40 45 43 37 37 42 37 36 35 34 35 37 35 36 36 38 41 44 47 49 52 53 52 51 51 50 49 49 48 47 45 45 43 42 40 39 38 35 35 32 32 33 33 34 36 37
40 40 41 41 38 39 46 40 36 36 35 37 37 37 37 37 39 43 46 49 52 53 52 52 52 51 49 48 48 47 44 45 43 42 39 39 38 37 35 33 32 31 32 34 35 35 35
41 40 41 40 39 38 41 41 38 36 36 35 36 37 39 39 41 46 48 51 53 54 52 51 51 50 49 48 48 45 44 43 43 41 37 38 37 36 35 34 34 33 32 34 34 33 35
41 39 42 40 41 36 40 39 37 39 38 39 38 38 40 41 44 47 50 52 53 52 52 51 50 49 48 48 47 44 44 42 41 39 37 37 38 36 35 35 34 34 33 34 35 35 34
38 35 41 40 43 41 41 39 36 39 37 38 39 40 42 44 46 49 52 53 52 52 50 49 50 46 47 47 46 44 42 40 39 37 37 37 38 37 37 36 36 35 35 35 35 35 35
34 34 36 38 41 33 36 40 39 39 40 40 41 42 45 46 49 52 53 54 53 49 50 49 47 47 48 46 45 45 41 40 37 37 37 38 39 40 39 38 38 37 36 37 36 37 36
Wind_Direction
311 315 317 321 323 325 327 322 315 311 307 304 303 305 305 305 302 299 298 302 303 302 302 305 302 298 293 293 292 284 288 287 285 283 283 282 281 280 278 277 276 278 274 273 273 269 268
307 313 317 321 322 326 327 322 322 318 317 315 315 314 312 311 307 304 302 301 301 302 303 303 297 295 294 292 289 289 287 286 289 289 287 286 286 286 285 286 286 289 288 284 281 282 278
296 307 312 316 319 324 323 322 320 321 316 315 317 315 313 312 310 309 308 305 305 305 302 299 295 294 293 294 289 291 293 293 292 293 290 289 289 290 290 288 288 286 286 286 285 284 280
287 297 302 304 308 322 319 321 312 313 313 312 313 312 312 313 315 312 307 306 304 304 305 304 300 298 298 297 297 295 292 295 295 294 290 289 289 288 288 288 285 284 285 283 282 281 280
285 290 294 300 304 309 315 324 316 312 311 310 310 312 312 317 320 317 315 309 303 308 306 306 308 303 302 299 298 301 299 298 299 298 297 295 294 292 290 288 288 286 285 284 283 281 280
282 287 293 296 300 306 309 314 309 309 311 303 300 308 310 314 315 315 311 310 308 307 306 306 305 301 302 301 302 296 298 299 301 302 302 301 300 297 297 295 293 293 292 291 289 286 284
280 284 288 293 291 305 301 310 298 297 304 303 294 299 302 308 317 315 315 315 312 310 304 307 309 306 304 302 298 302 305 302 301 302 304 306 306 305 303 300 298 296 296 293 290 286 284
277 282 283 298 294 298 305 306 300 291 296 300 293 290 291 295 311 311 318 319 315 314 314 310 311 308 308 301 299 301 302 302 303 306 309 310 313 312 309 306 304 303 301 298 295 291 289
272 280 280 292 294 297 295 299 298 293 290 297 294 292 282 287 293 305 307 318 319 315 312 314 312 307 306 306 308 306 305 307 308 309 312 313 315 313 312 310 309 306 305 302 300 296 293
267 277 281 286 289 292 293 299 294 289 286 290 293 295 286 277 289 298 307 313 315 312 312 314 307 312 310 312 313 311 308 312 314 315 317 317 317 318 317 315 313 311 309 306 302 299 296
268 274 278 282 284 287 290 293 300 294 287 287 291 296 286 277 283 294 301 308 310 310 312 309 308 308 311 313 316 316 317 318 319 320 321 319 319 319 318 315 314 312 309 305 303 300 296
263 272 278 280 282 278 284 291 299 297 288 288 291 291 281 285 286 293 297 303 307 308 314 312 312 312 310 313 315 316 317 318 319 320 320 319 318 318 319 316 315 313 310 307 304 301 300
263 266 276 281 277 272 276 284 290 295 293 287 286 279 280 283 289 294 297 305 308 311 311 311 312 312 310 311 315 317 317 318 318 319 318 317 318 319 318 315 313 311 309 305 302 303 303
264 268 277 272 274 270 275 280 288 290 288 282 278 276 278 281 289 294 300 306 310 312 313 311 309 311 313 313 316 317 319 320 321 321 319 319 317 318 318 317 317 315 312 311 309 309 308
263 259 273 275 270 276 276 281 289 284 283 277 274 277 276 282 289 291 299 304 308 313 315 313 311 310 313 316 318 319 320 320 320 319 318 319 318 318 319 320 318 316 314 314 311 308 304
255 276 282 281 277 274 273 278 285 284 280 275 271 277 277 282 286 291 298 304 307 314 318 317 314 314 316 317 318 319 320 319 318 317 319 320 319 320 319 319 316 315 315 315 311 306 302
254 274 286 272 280 272 273 270 276 281 279 271 270 278 274 280 286 292 299 304 308 316 321 321 319 316 316 317 317 317 318 317 316 316 319 319 319 320 320 320 318 317 318 314 309 302 295
267 272 276 276 271 281 276 270 271 274 274 268 271 276 275 279 287 291 299 304 308 315 321 322 320 317 317 316 316 316 316 315 314 315 317 318 317 318 320 320 319 321 319 316 309 306 299
259 261 273 275 284 277 275 270 268 272 271 267 268 276 279 279 286 290 294 302 307 315 319 321 319 317 317 315 314 315 315 314 313 314 317 318 318 319 320 320 322 321 320 317 313 309 305
259 257 251 268 274 276 280 283 264 268 268 268 268 276 277 280 285 288 292 300 305 314 317 318 318 317 316 313 312 313 312 311 311 313 316 315 317 318 319 320 321 322 322 322 319 315 311
251 252 261 263 261 272 279 290 270 265 265 267 270 276 276 282 287 289 293 298 304 311 315 318 316 315 313 309 310 310 310 309 310 313 313 314 316 316 316 319 322 324 324 324 323 319 315
250 250 260 255 265 272 279 272 265 264 264 269 272 275 276 280 287 289 295 300 305 309 314 315 313 313 310 308 309 307 307 308 309 311 311 312 312 313 315 317 321 323 324 324 323 321 320
255 252 254 267 264 267 276 262 263 264 266 269 272 276 278 281 287 293 296 299 305 308 312 312 311 311 308 308 306 306 306 306 307 309 308 309 310 311 311 314 320 322 323 325 325 323 322
255 254 252 257 263 270 270 261 262 263 264 267 273 278 282 285 290 295 298 300 304 307 309 310 310 310 307 305 304 304 304 305 306 305 304 306 307 308 309 313 319 321 324 324 326 326 325
258 252 252 252 259 267 260 260 258 264 266 271 276 280 281 287 290 294 298 299 303 306 309 308 309 306 303 302 304 303 303 303 302 302 303 303 303 304 307 311 317 321 324 325 325 326 325
254 251 249 244 260 263 259 251 255 264 269 275 281 281 285 289 292 294 296 299 302 307 307 307 306 302 301 302 302 301 302 302 301 301 300 302 301 302 305 310 316 319 323 323 324 324 324
250 250 247 252 264 262 255 249 256 263 272 278 281 285 288 294 294 293 296 299 304 307 306 305 303 300 300 300 298 300 300 299 299 299 300 300 299 301 304 308 313 315 319 320 321 322 322
247 249 248 258 261 257 254 253 261 266 272 277 284 288 293 293 292 295 299 301 305 305 306 303 299 299 296 297 297 298 296 298 297 297 297 297 297 299 301 306 310 313 315 318 318 318 319
241 248 261 250 261 264 269 264 264 267 269 280 288 292 294 290 293 297 300 302 304 304 304 300 298 297 298 295 293 293 296 297 295 294 294 294 296 297 300 305 307 311 313 315 316 315 317
Height
5794 5792 5791 5790 5788 5786 5784 5782 5781 5779 5777 5776 5774 5772 5769 5767 5765 5763 5762 5760 5758 5757 5755 5753 5753 5751 5750 5750 5748 5747 5747 5744 5743 5742 5741 5740 5739 5738 5737 5736 5732 5730 5733 5731 5728 5728 5725
5792 5791 5789 5788 5786 5784 5782 5780 5778 5776 5774 5773 5771 5768 5765 5764 5762 5760 5759 5757 5755 5753 5751 5750 5748 5747 5747 5746 5744 5743 5742 5740 5739 5738 5736 5734 5732 5730 5729 5727 5723 5721 5719 5718 5715 5713 5712
5789 5788 5787 5786 5784 5782 5779 5777 5774 5772 5770 5768 5768 5766 5763 5761 5759 5757 5754 5753 5751 5749 5747 5745 5744 5742 5741 5742 5739 5740 5736 5736 5734 5733 5730 5728 5725 5724 5722 5719 5717 5713 5709 5705 5703 5702 5699
5786 5785 5784 5782 5781 5779 5777 5774 5771 5769 5768 5765 5763 5763 5761 5758 5756 5753 5750 5749 5747 5745 5743 5742 5739 5737 5736 5736 5734 5733 5732 5731 5727 5725 5724 5722 5719 5717 5715 5712 5708 5704 5701 5696 5693 5689 5685
5782 5781 5779 5777 5776 5774 5773 5770 5767 5766 5764 5762 5760 5759 5757 5754 5752 5750 5746 5744 5743 5741 5739 5738 5736 5734 5733 5732 5730 5726 5724 5722 5720 5719 5717 5714 5712 5709 5706 5702 5698 5694 5689 5685 5679 5675 5670
5779 5778 5776 5773 5772 5770 5768 5766 5764 5762 5760 5759 5756 5755 5753 5751 5748 5745 5744 5740 5739 5738 5735 5734 5731 5731 5728 5724 5723 5722 5720 5717 5714 5712 5709 5706 5703 5699 5696 5692 5687 5681 5675 5670 5664 5658 5652
5775 5773 5772 5770 5767 5765 5763 5761 5759 5757 5755 5754 5753 5751 5749 5748 5745 5742 5740 5738 5736 5735 5732 5729 5727 5725 5722 5719 5717 5715 5712 5710 5707 5705 5701 5697 5692 5688 5683 5679 5673 5668 5662 5654 5647 5639 5632
5768 5767 5766 5766 5764 5762 5760 5756 5754 5752 5752 5750 5749 5748 5746 5744 5742 5739 5736 5732 5730 5729 5726 5724 5721 5718 5715 5714 5712 5710 5707 5705 5701 5696 5692 5687 5681 5676 5671 5665 5658 5651 5643 5634 5626 5616 5606
5763 5762 5761 5759 5758 5757 5754 5752 5749 5747 5745 5744 5743 5743 5741 5739 5737 5735 5733 5730 5726 5722 5721 5719 5715 5713 5711 5709 5705 5702 5699 5695 5691 5687 5682 5676 5670 5663 5656 5649 5642 5631 5622 5613 5604 5593 5581
5756 5756 5756 5754 5752 5751 5749 5746 5743 5742 5739 5738 5737 5735 5735 5734 5734 5730 5728 5725 5721 5717 5716 5714 5709 5706 5703 5699 5697 5694 5690 5686 5680 5674 5667 5661 5654 5647 5639 5630 5622 5613 5602 5592 5580 5567 5561
5750 5749 5750 5748 5746 5745 5745 5741 5738 5735 5733 5732 5730 5729 5728 5728 5727 5725 5723 5720 5716 5713 5707 5707 5704 5700 5696 5694 5689 5683 5678 5673 5667 5660 5655 5647 5638 5630 5623 5613 5603 5595 5584 5573 5560 5549 5538
5742 5743 5742 5741 5740 5738 5737 5736 5733 5731 5728 5727 5725 5723 5723 5723 5722 5720 5717 5714 5710 5708 5702 5700 5696 5691 5688 5684 5680 5674 5669 5664 5657 5649 5641 5633 5624 5616 5607 5595 5584 5574 5564 5553 5542 5531 5524
5734 5735 5735 5735 5733 5731 5730 5728 5726 5725 5723 5721 5719 5718 5717 5717 5716 5714 5711 5707 5705 5700 5696 5692 5688 5684 5679 5674 5670 5664 5659 5653 5646 5639 5631 5621 5611 5601 5592 5583 5570 5558 5547 5538 5530 5521 5514
5726 5726 5727 5727 5725 5724 5723 5721 5721 5718 5715 5714 5713 5712 5711 5710 5709 5707 5704 5701 5698 5693 5689 5684 5680 5676 5671 5666 5661 5654 5647 5640 5632 5624 5617 5609 5597 5588 5577 5566 5553 5541 5533 5523 5511 5506 5500
5718 5717 5717 5719 5718 5716 5715 5715 5713 5711 5708 5707 5705 5705 5704 5703 5702 5700 5698 5694 5690 5686 5682 5677 5672 5667 5662 5656 5650 5642 5635 5629 5620 5613 5606 5595 5586 5572 5562 5552 5542 5531 5521 5512 5502 5497 5489
5710 5710 5710 5711 5710 5708 5707 5707 5705 5703 5701 5700 5698 5697 5697 5696 5695 5693 5691 5687 5682 5678 5673 5668 5664 5658 5651 5645 5639 5631 5623 5616 5608 5601 5591 5582 5572 5562 5552 5543 5533 5524 5514 5505 5497 5487 5479
5701 5702 5702 5703 5702 5699 5698 5698 5697 5696 5693 5693 5692 5690 5689 5688 5687 5685 5681 5678 5674 5670 5665 5660 5654 5648 5641 5634 5627 5620 5612 5604 5596 5588 5579 5569 5561 5552 5541 5534 5526 5517 5507 5498 5491 5484 5475
5691 5693 5695 5694 5694 5692 5690 5689 5688 5686 5686 5685 5685 5682 5681 5680 5679 5676 5673 5669 5665 5660 5654 5650 5644 5637 5630 5623 5616 5609 5601 5592 5584 5576 5567 5559 5550 5542 5534 5525 5517 5508 5500 5493 5484 5479 5470
5683 5684 5687 5687 5686 5684 5682 5680 5679 5678 5678 5677 5676 5675 5673 5671 5669 5667 5664 5660 5656 5651 5645 5639 5633 5626 5619 5611 5605 5597 5588 5580 5573 5564 5554 5547 5539 5532 5524 5518 5509 5500 5492 5485 5478 5471 5466
5674 5675 5678 5679 5678 5676 5674 5672 5671 5669 5668 5668 5668 5667 5665 5662 5660 5657 5654 5651 5646 5641 5634 5628 5622 5614 5607 5599 5592 5584 5576 5568 5561 5552 5544 5537 5529 5522 5516 5509 5501 5493 5485 5477 5470 5462 5456
5666 5668 5668 5669 5669 5668 5666 5664 5663 5661 5661 5660 5659 5658 5655 5653 5651 5648 5645 5641 5636 5631 5624 5617 5610 5602 5595 5587 5579 5571 5564 5557 5549 5541 5533 5527 5520 5513 5507 5500 5493 5485 5477 5469 5462 5455 5448
5656 5659 5659 5660 5659 5658 5659 5656 5654 5653 5653 5652 5650 5648 5645 5643 5641 5638 5635 5631 5626 5619 5613 5605 5597 5590 5583 5575 5568 5559 5553 5545 5538 5530 5523 5516 5511 5506 5499 5492 5485 5479 5471 5464 5457 5449 5442
5646 5649 5650 5651 5651 5651 5649 5648 5646 5644 5644 5642 5640 5638 5636 5634 5631 5628 5625 5620 5615 5608 5601 5593 5585 5577 5570 5563 5555 5548 5541 5534 5527 5520 5513 5508 5502 5497 5493 5485 5479 5473 5465 5458 5451 5444 5437
5636 5639 5641 5642 5642 5642 5642 5639 5638 5636 5635 5634 5631 5629 5626 5624 5620 5617 5614 5609 5603 5596 5588 5581 5573 5564 5559 5550 5544 5537 5530 5523 5517 5511 5504 5499 5493 5488 5483 5477 5472 5465 5457 5450 5444 5437 5430
5626 5628 5630 5633 5634 5633 5631 5631 5629 5628 5626 5624 5621 5619 5616 5613 5609 5607 5602 5597 5591 5583 5576 5568 5560 5553 5545 5539 5532 5525 5519 5513 5507 5502 5496 5490 5485 5479 5475 5469 5465 5457 5451 5444 5437 5431 5424
5616 5619 5619 5622 5623 5621 5620 5620 5619 5618 5617 5614 5612 5609 5606 5602 5600 5595 5590 5585 5578 5570 5563 5555 5548 5540 5534 5527 5520 5514 5506 5502 5496 5491 5488 5482 5477 5472 5466 5460 5455 5450 5444 5437 5430 5425 5418
5607 5609 5610 5612 5612 5611 5610 5609 5609 5608 5607 5605 5602 5599 5595 5590 5588 5583 5578 5572 5564 5556 5550 5542 5536 5528 5522 5516 5509 5504 5498 5492 5486 5481 5478 5474 5468 5463 5456 5451 5449 5442 5436 5430 5424 5421 5412
5597 5599 5601 5601 5601 5601 5600 5600 5599 5598 5597 5595 5592 5588 5584 5579 5575 5571 5565 5558 5550 5543 5536 5530 5522 5517 5509 5504 5498 5493 5486 5482 5476 5472 5469 5465 5459 5455 5449 5444 5441 5435 5429 5423 5417 5410 5405
5588 5591 5591 5591 5591 5591 5591 5590 5588 5588 5587 5585 5581 5577 5571 5568 5564 5558 5551 5544 5537 5530 5524 5516 5511 5503 5496 5491 5486 5480 5476 5471 5466 5463 5459 5454 5451 5446 5442 5437 5431 5426 5420 5415 5409 5403 5397